Location: Riverton
(43.0250°N, 108.3790°W)
Time: 06:13:30
(UTC-06:00)

JAS-2 - Visible Passes

Search period start: 22 September 2014 00:00
Search period end: 02 October 2014 00:00
Orbit: 800 x 1322 km, 98.5° (Epoch: 22 September)

Date Brightness Start Highest point End Pass type
(mag) Time Alt. Az. Time Alt. Az. Time Alt. Az.
22 Sep 12.8 05:27:21 10° ENE 05:29:53 12° E 05:32:30 10° ESE visible
23 Sep 11.7 06:14:55 10° NE 06:20:28 32° E 06:26:35 10° SSE visible
24 Sep 12.9 05:22:45 10° ENE 05:24:58 12° E 05:27:15 10° ESE visible
25 Sep 11.8 06:10:01 10° NE 06:15:36 31° E 06:21:42 10° SSE visible
25 Sep 12.8 19:58:31 10° WSW 19:59:48 11° W 20:01:06 10° WNW visible
26 Sep 12.9 05:18:15 10° ENE 05:20:03 11° E 05:21:54 10° ESE visible
27 Sep 11.9 06:05:08 10° NE 06:10:43 29° E 06:16:49 10° SSE visible
27 Sep 12.6 19:52:49 10° WSW 19:54:48 12° W 19:56:48 10° WNW visible
28 Sep 13.0 05:13:57 10° ENE 05:15:09 10° E 05:16:22 10° E visible
29 Sep 12.0 06:00:16 10° NE 06:05:51 28° E 06:11:55 10° SSE visible
29 Sep 12.5 19:47:19 10° WSW 19:49:47 13° W 19:52:19 10° WNW visible
01 Oct 12.1 05:55:25 10° NE 06:01:00 27° E 06:07:00 10° SSE visible
01 Oct 12.4 19:41:54 10° WSW 19:44:47 15° W 19:47:45 10° NW visible
